ONEWEB-0272, 48990

Orbit data source: Space-Track

ONEWEB-0272, 48990 is a payload satellite owned by One Web (NAA) (UK) in LEO that was launched on Thu, 01 Jul 2021 UTC via a SOYUZ-2-1B launch vehicle from the Vostochny Cosmodrome (VOSTO). Payload-class satellites include a variety of spacecraft equipped with specific instruments for various scientific and technological missions. These include communications satellites like Starlink; space stations such as the ISS; scientific satellites like the Hubble; Earth observation satellites from companies like Planet Labs, Umbra, and HawkEye 360; GPS; miniature CubeSats for education and research; and military/defense satellites.

Loading next visibility...
Identifier
48990, 2021-060Z
Orbit
LEO
Country
Flag of UKUK
Related business
Manufacturer
One Web
Mission
Operational Commercial Communications
Bus & Motor
ARROW, Unknown motor
Mass
148 kg wet, ~140 kg dry
Launch date (UTC)
2021-07-01 (4 years ago)
Launch vehicle
SOYUZ-2-1B
Launch site
Vostochny Cosmodrome (VOSTO)
Object type
Payload
Rocket body
Debris
Shape & HBR
Trap Box + 2 Pan, 6.7 m
Radar Cross Section
3.464 m², Large (>1 m²)

Expand to show TLE details & history
Last TLE update: 9 hours ago

TLE from 9 hours ago
0 ONEWEB-0272
1 48990U 21060Z   25349.81234167 -.00000089  00000-0 -26515-3 0  9995
2 48990  87.9038 265.3001 0001991  75.1728 284.9623 13.16596153215488
Epoch: 2025-12-15T19:29Z
TLE epoch observation values (Epoch: 2025-12-15T19:29:46.320Z)
Latitude
-0.00005°
Longitude
-111.84844°
Altitude
1,200.257 km
Speed
7.254 km/s
True Right ascension
17h 41m 12s
True Declination
0° 00' 00"
Sunlit
Object was in daylight at epoch
Visualization orbit readout
Latitude
Unknown
Longitude
Unknown
Altitude
Unknown
Speed
Unknown
Apparent Right ascension
Unknown
Apparent Declination
Unknown
Sunlit
N/A
Visualization observer readout
Local Sidereal Time
03:08:08
Azimuth
Unknown
Elevation
Unknown
Doppler factor
Unknown
Orbital elements
Apogee altitude
1,196.368 km
Perigee altitude
1,193.352 km
Semi-major axis
7,572.997 km
Eccentricity
0.0002
Inclination
87.9038°
RAAN
265.3001°
Arg. of periapsis
75.1728°
True anomaly
284.94026°
Mean anomaly
284.9623°
Eccentric anomaly
284.95128°
Mean motion
3.29338 °/min
Orbital period
109.31 mins
BSTAR
-0.00026515
Loading maneuver chart data...
Computing Atmospheric mass density...
Loading historical data...
Loading historical data...
Loading historical data...
Loading historical data...
Loading historical data...
Loading historical data...
Loading historical data...

Documentation

Showing up to 5 results
|